Theta_e
316 316 316 316 316 316 316 316 316 317 317 317 317 319 319 320 319 317 313 317 321 338 339 330 329 328 328 323 323 323 311 307 309 309 310 317 315 319 321 316 317 317 315 319 324
315 315 316 316 315 315 315 315 315 316 316 316 317 317 318 319 313 311 322 334 340 340 326 325 324 325 320 319 319 315 310 309 314 314 311 314 314 315 315 315 315 315 318 320 321
315 315 315 315 315 315 315 315 315 315 315 315 316 316 318 318 310 311 340 339 337 338 321 325 326 323 318 318 316 315 310 314 315 315 315 312 313 316 314 311 315 313 316 317 318
315 315 315 315 315 315 315 315 315 315 315 315 315 316 318 314 298 319 339 340 341 326 319 317 320 318 315 313 317 312 315 315 316 316 313 311 316 313 314 314 317 317 317 318 318
316 315 315 315 315 315 315 315 315 315 315 314 315 316 312 305 306 317 339 336 328 320 315 314 315 317 313 315 316 314 314 316 317 316 314 314 314 313 313 317 318 317 316 316 319
317 317 316 316 316 315 315 315 315 315 315 314 315 315 310 299 312 315 316 325 321 317 314 315 314 317 315 314 313 316 316 315 316 315 315 311 313 313 315 318 316 315 315 316 317
314 316 316 316 315 315 315 314 314 314 314 314 315 313 305 303 314 316 316 315 322 320 313 315 316 314 315 312 317 315 310 312 313 314 312 314 310 310 315 317 316 315 316 317 318
313 313 314 315 316 315 315 315 314 314 315 315 316 311 301 312 315 312 314 314 315 318 321 322 320 314 312 316 313 309 310 304 311 313 314 312 304 312 316 316 315 315 316 317 320
312 312 313 313 313 315 315 314 315 315 315 316 311 306 299 316 311 314 315 311 315 316 317 317 314 313 311 306 305 307 302 304 307 313 312 311 306 312 316 316 315 316 316 317 319
310 312 312 312 312 313 313 313 314 315 315 314 311 304 309 308 312 315 315 313 310 311 310 313 310 307 307 304 297 301 302 304 305 310 312 309 309 313 316 315 316 317 317 317 319
308 309 311 312 312 312 310 310 307 308 307 305 307 304 308 316 318 312 315 312 310 308 302 309 304 302 305 307 306 307 305 305 309 312 310 310 311 312 315 316 315 316 317 319 321
310 308 308 311 312 312 309 304 308 309 301 308 309 309 310 313 306 309 315 307 305 300 303 304 302 307 309 308 306 306 304 305 309 311 310 310 309 312 314 315 315 316 317 319 321
311 309 308 309 311 308 305 306 313 313 300 302 308 309 310 311 307 308 310 308 304 300 301 300 303 308 307 306 305 305 304 306 305 309 311 309 307 310 313 315 315 316 318 320 321
312 310 308 309 305 310 308 313 316 312 293 296 302 305 309 312 306 313 313 309 305 300 301 301 305 305 306 305 306 302 308 308 307 305 300 309 298 307 310 311 312 314 316 317 321
311 310 309 306 305 303 310 313 312 308 284 303 303 313 309 306 308 307 313 309 303 302 303 300 301 301 304 305 308 305 310 308 308 305 304 303 300 303 310 308 310 313 316 319 322
310 310 310 304 305 307 310 313 309 291 284 298 307 304 303 304 306 309 308 310 309 304 304 302 308 306 306 310 310 311 308 308 307 305 298 302 301 301 305 308 310 311 315 320 321
310 310 309 308 300 310 310 306 290 285 298 298 302 304 302 301 302 304 303 302 300 297 298 302 302 307 310 306 310 308 307 298 295 295 294 303 300 304 310 311 310 311 314 320 321
309 309 308 308 307 307 305 296 283 290 293 304 304 304 300 303 302 302 302 299 305 303 299 297 295 303 308 307 305 307 307 299 291 293 295 304 298 303 311 313 313 313 319 321 321
307 307 306 308 307 304 297 285 286 291 297 297 299 298 300 303 303 301 302 301 304 305 299 298 298 307 307 310 309 306 302 308 301 302 297 300 305 311 311 310 311 314 318 321 321
304 302 302 309 308 303 292 286 290 295 296 296 293 297 294 300 300 301 301 304 303 307 310 304 299 306 306 310 310 309 311 301 301 293 291 297 300 301 307 307 311 315 318 320 321
303 292 302 309 309 296 286 287 292 296 296 292 292 293 295 295 300 300 300 304 306 305 308 308 306 304 307 305 304 306 304 305 305 301 294 293 299 315 310 311 314 317 319 320 319
296 287 306 307 291 291 287 292 294 293 296 294 294 294 295 297 297 297 301 304 308 308 304 308 306 301 303 309 311 309 306 307 299 299 301 301 300 314 315 313 315 317 319 319 320
294 297 309 305 287 288 292 291 293 292 292 291 292 294 297 295 293 299 303 309 309 308 306 308 303 299 301 306 309 306 307 308 309 309 302 296 299 314 314 313 315 315 319 319 320
293 288 298 301 298 292 289 289 289 296 294 294 292 294 294 294 298 296 300 307 309 309 311 312 305 301 299 303 307 304 306 306 306 301 301 301 303 309 312 311 313 316 320 319 320
298 293 295 289 291 291 291 289 288 287 294 295 292 293 291 290 294 296 299 299 305 310 312 311 301 305 306 306 307 306 305 305 304 305 301 304 304 308 313 313 314 318 320 319 318
294 293 296 293 293 290 290 288 288 290 291 291 291 293 294 291 294 292 295 296 299 302 308 313 302 305 302 304 306 304 306 305 305 305 305 305 306 314 316 316 315 315 318 318 319
302 303 296 291 291 289 289 290 290 293 294 295 294 293 292 295 298 299 300 300 300 299 303 309 306 303 298 304 304 300 305 305 306 308 307 303 309 314 312 313 315 317 319 320 320
Wind_Speed
12 12 12 13 13 14 13 13 15 15 15 16 16 16 16 16 20 12 15 14 15 16 4 13 16 20 19 19 19 18 15 15 21 21 14 14 12 10 6 4 9 5 4 7 11
13 13 13 12 12 12 13 13 15 15 15 14 15 17 17 17 12 21 17 16 13 16 13 20 21 20 17 20 18 17 14 21 21 19 15 16 14 17 16 8 7 12 10 9 11
12 13 14 15 15 13 14 14 15 16 16 16 16 17 17 17 12 10 9 8 19 20 21 21 20 21 22 19 21 19 19 19 21 20 13 19 14 18 10 9 8 7 1 13 11
13 12 14 15 16 15 15 15 16 17 17 18 18 18 21 6 8 6 7 6 6 18 19 23 24 25 24 23 23 24 25 23 19 18 18 19 14 15 10 9 9 2 1 14 13
15 15 15 14 15 15 15 15 16 17 17 17 17 16 11 11 18 12 10 7 9 16 23 25 27 27 27 24 22 26 24 22 18 16 24 20 17 14 14 9 6 4 4 8 7
16 16 15 15 15 15 15 16 16 16 16 16 14 15 10 20 13 18 20 9 11 18 21 22 25 25 24 25 25 22 24 18 20 25 18 19 15 12 15 10 8 8 10 8 9
14 15 16 16 16 16 17 16 17 18 20 20 14 9 13 25 10 15 13 19 17 17 18 21 24 28 22 28 25 23 24 22 23 16 18 19 18 16 17 12 16 11 8 12 8
16 14 14 16 18 18 19 20 20 21 22 20 14 10 14 13 21 31 28 23 20 21 20 16 18 24 25 23 23 22 26 21 21 23 23 18 16 13 17 14 11 13 13 12 12
18 17 16 15 17 18 19 21 25 26 22 16 9 11 16 14 28 28 24 24 19 20 18 19 20 20 19 21 19 19 17 25 22 21 20 19 18 16 16 15 12 10 10 10 10
18 17 17 16 18 17 19 22 27 19 12 11 12 13 18 21 20 23 25 26 23 19 20 20 17 20 18 17 20 20 23 21 21 20 11 15 16 17 17 15 15 12 11 11 9
18 18 17 18 16 16 16 13 8 9 14 17 16 19 19 19 20 20 19 23 23 21 22 20 19 23 26 26 26 25 25 22 20 20 12 9 22 17 11 15 18 13 10 10 9
17 17 18 18 18 16 13 11 19 14 13 27 33 28 26 20 12 16 16 21 25 27 23 21 24 25 26 25 27 28 25 22 20 14 11 13 13 12 16 19 18 13 10 9 10
15 15 18 18 18 14 16 24 20 26 13 22 28 33 31 28 27 20 24 23 24 27 26 29 25 27 28 26 28 26 24 20 21 15 16 8 14 18 18 17 12 8 7 2 13
16 13 15 16 12 10 16 18 19 9 10 17 27 27 34 28 38 28 24 22 23 29 31 30 26 28 29 28 25 24 25 23 19 16 12 14 13 13 15 17 7 7 11 12 15
16 16 12 9 16 12 13 18 9 3 10 9 32 13 22 35 10 34 31 28 27 26 24 29 30 30 30 29 28 23 25 23 18 15 15 15 13 13 15 16 9 5 1 11 14
17 14 11 11 13 15 15 16 10 9 17 10 10 27 25 31 35 8 36 30 25 26 28 29 26 29 32 25 26 25 23 20 13 13 14 16 15 13 15 3 7 2 6 12 13
17 14 12 11 13 10 6 7 9 16 12 14 18 25 24 27 32 32 32 33 29 29 29 26 31 30 29 30 24 25 19 11 12 13 11 16 17 15 13 6 2 5 3 10 12
15 11 11 12 14 11 4 6 17 21 35 10 21 24 26 23 30 34 27 28 31 32 15 23 24 34 27 30 25 25 17 13 16 12 16 11 15 7 2 7 6 2 7 8 10
9 9 10 11 15 6 5 14 22 29 15 28 32 29 25 25 22 31 35 31 31 33 26 23 29 22 32 27 26 22 19 20 18 15 13 4 13 10 12 9 7 8 7 10 10
4 4 11 12 13 4 7 15 24 30 37 34 27 20 21 21 27 31 31 30 32 33 25 24 18 28 31 26 28 23 19 18 12 17 16 14 14 6 13 9 10 11 9 10 13
3 1 11 16 8 4 8 18 23 26 33 29 28 27 27 25 21 28 32 27 32 33 31 24 18 19 24 30 22 19 20 20 13 15 13 12 11 5 15 10 9 11 13 12 15
2 3 5 11 6 4 9 20 21 26 29 27 24 20 27 25 21 19 27 30 25 31 35 32 11 17 26 26 26 23 23 18 11 17 12 12 6 9 7 8 8 14 15 15 14
4 5 1 1 6 10 17 23 24 23 24 26 22 21 23 28 16 15 22 24 33 31 30 25 20 14 20 22 26 24 21 21 16 9 15 12 11 12 11 8 9 7 16 16 14
2 4 3 5 8 14 18 18 19 14 23 23 23 19 22 21 21 17 23 19 21 31 31 22 19 24 15 17 21 26 25 23 20 13 13 15 13 14 14 11 9 9 15 17 14
4 5 5 3 7 11 14 18 22 22 23 19 17 22 22 21 21 19 21 20 25 22 21 22 27 23 25 23 27 27 27 25 24 20 19 17 17 11 14 11 11 12 12 15 17
5 5 6 9 10 12 12 13 20 19 22 18 19 21 16 21 22 15 20 19 13 21 13 20 23 24 24 28 26 25 28 27 27 25 22 21 18 14 10 16 15 11 15 14 16
6 5 4 7 9 8 9 14 12 16 20 17 14 16 19 20 19 15 21 23 26 24 23 15 17 21 23 23 25 25 27 26 21 21 22 21 16 13 8 8 7 12 14 13 14
Wind_Direction
347 346 345 343 340 340 343 340 336 335 333 333 336 328 331 328 309 250 243 235 220 172 241 196 212 226 219 233 240 245 255 265 276 289 312 319 330 331 285 240 277 151 169 112 127
336 340 339 335 332 332 334 337 331 328 327 328 333 329 331 324 290 275 251 239 158 164 200 214 212 221 229 231 245 240 250 265 275 293 318 326 311 308 298 280 262 176 162 154 162
323 326 329 330 329 330 330 331 329 325 323 330 330 329 320 314 291 270 351 219 171 173 214 225 226 220 231 236 237 241 253 253 277 291 305 298 301 276 294 292 307 10 31 162 185
307 309 311 317 320 325 327 325 323 320 324 325 328 332 313 264 255 77 77 81 152 187 221 236 235 231 227 236 243 253 252 253 262 288 285 275 279 285 297 289 293 53 188 173 193
298 301 302 300 306 311 312 310 310 312 317 321 322 327 316 239 241 250 121 126 187 210 223 227 225 228 238 234 242 257 261 254 272 276 265 264 267 281 280 308 317 263 214 233 199
320 302 293 293 295 296 298 304 307 306 303 305 311 311 247 254 261 264 257 190 209 211 222 233 240 240 245 250 253 254 259 269 258 252 270 266 263 262 259 264 247 245 238 222 228
315 312 305 299 299 298 299 301 301 301 301 303 308 295 261 244 260 262 278 227 224 203 218 228 240 253 247 248 255 262 266 264 258 266 260 274 258 240 274 251 253 232 225 240 242
317 314 313 316 308 301 301 301 296 290 291 290 280 263 256 259 241 257 260 262 225 228 223 236 238 249 260 269 257 258 264 260 258 252 248 236 262 263 270 238 237 239 248 232 220
324 315 309 313 311 306 301 295 288 282 279 266 240 215 261 251 226 237 237 234 220 217 224 227 238 245 242 249 257 247 250 252 257 250 261 208 238 242 271 279 240 258 246 251 206
313 320 315 308 307 307 303 294 277 280 238 214 249 224 240 249 239 218 224 234 225 230 233 235 225 236 221 225 231 234 231 236 251 261 197 233 246 240 248 257 252 261 251 214 225
311 309 316 312 305 306 311 302 224 197 218 210 198 213 285 214 235 224 212 214 231 233 227 227 221 223 224 222 236 244 249 241 243 229 271 223 236 248 289 287 287 274 260 202 193
300 307 303 306 308 300 289 261 267 329 283 228 252 236 244 272 254 231 214 205 205 221 215 218 224 228 235 229 231 242 250 262 273 281 260 246 259 289 281 268 266 273 275 213 150
287 295 303 304 311 282 248 251 273 286 276 261 238 235 238 231 240 231 212 210 208 213 211 216 219 220 233 223 229 232 242 250 261 276 270 258 262 253 271 258 227 233 243 188 151
294 284 295 310 291 280 266 245 230 260 273 253 216 240 222 223 242 226 220 211 217 215 217 226 224 227 224 232 219 233 233 241 259 266 266 291 294 296 300 279 237 265 219 189 150
294 282 283 280 306 293 341 339 335 190 263 239 214 183 193 200 171 208 212 206 212 211 212 223 221 225 226 220 226 228 235 231 233 250 258 264 268 280 279 281 215 212 246 129 143
294 283 271 265 235 275 285 315 288 227 234 242 238 185 192 200 214 227 197 219 215 223 222 229 222 224 231 222 221 229 235 243 242 255 247 243 253 267 268 342 108 132 129 144 147
294 277 252 266 269 301 343 279 213 229 232 264 189 174 197 196 209 225 190 199 209 209 223 222 229 227 232 226 213 224 225 220 226 236 254 254 250 254 260 300 107 58 18 129 142
287 262 238 245 255 270 282 235 231 228 238 278 230 184 202 215 201 209 192 203 210 208 204 219 219 220 213 229 217 207 208 233 222 225 244 317 242 266 256 140 113 137 71 114 141
289 261 248 237 235 222 193 223 229 243 249 242 276 281 200 213 220 201 222 203 206 204 213 206 228 208 225 212 224 199 205 221 249 256 263 209 237 264 157 159 195 158 129 135 148
279 281 258 223 215 125 209 240 247 251 270 294 292 324 319 226 223 194 203 223 208 206 220 233 219 229 202 214 216 222 201 208 218 239 259 277 259 253 148 189 167 135 140 143 145
269 316 257 202 155 220 223 223 246 261 276 291 303 307 306 302 269 210 211 218 204 206 208 227 246 212 212 207 198 198 226 200 219 227 229 248 269 183 149 192 134 149 137 157 154
124 243 299 153 171 237 239 253 271 276 283 290 300 286 283 306 315 295 223 218 221 201 200 212 225 243 214 199 202 200 214 205 208 219 240 252 244 97 106 139 146 126 146 165 166
283 286 190 166 230 234 257 261 258 265 271 269 277 263 293 314 310 297 266 231 222 193 207 196 226 238 239 207 191 206 210 220 206 216 219 242 240 159 168 174 172 184 150 158 170
297 291 192 206 270 286 290 288 281 288 302 263 260 267 275 273 280 283 294 295 226 225 196 185 218 221 229 207 176 189 213 214 212 210 223 230 244 156 159 175 172 195 145 155 173
221 267 324 280 270 269 283 268 279 284 287 275 250 255 257 270 278 275 356 335 313 247 190 188 208 223 230 234 194 193 203 215 215 218 217 223 245 237 173 176 198 191 159 160 169
282 314 340 294 296 301 295 278 269 282 280 292 285 250 243 262 269 337 339 327 288 340 280 190 207 213 224 229 244 199 199 208 225 216 214 233 236 224 234 187 183 196 175 174 172
304 300 294 282 283 281 289 278 305 297 286 259 267 271 263 259 273 308 306 293 285 290 294 225 205 200 224 218 235 216 199 199 217 226 209 218 224 239 223 182 210 185 182 174 174